Regional Weather Roundup
Issued by NWS Melbourne, FL

Current Version |  Previous Version |  Text Only |  Print | Product List |  Glossary On
Versions: 1 2 3 4 5 6 7 8 9 10 11 12 13 14 15 16 17 18 19 20 21 22 23 24 25 26 27 28
942
ASUS42 KMLB 182310
RWRMLB
HOURLY WEATHER ROUNDUP AROUND FLORIDA
NATIONAL WEATHER SERVICE OFFICE MELBOURNE FL
700 PM EDT SAT MAY 18 2024

CITY           SKY/WX    TMP DP  RH WIND       PRES   REMARKS
MELBOURNE      PTSUNNY   78  75  90 E3        29.95F
FORT PIERCE    MOSUNNY   82  72  71 N6        29.93R
ORLANDO INTL   PTSUNNY   83  73  72 NE13      29.94S
DAYTONA BEACH  PTSUNNY   75  72  90 E5        29.94F
VERO BEACH     HVY RAIN  79  73  82 E10       29.92F
$$
...ELSEWHERE ACROSS CENTRAL FLORIDA...

CITY           SKY/WX    TMP DP  RH WIND       PRES   REMARKS
PATRICK AFB    PTSUNNY   77  73  87 NE9       29.94R
KSC            PTSUNNY   76  71  85 NE12      29.95S
CAPE CANAVERAL PTSUNNY   78  74  87 NE7       29.93F
TITUSVILLE     MOSUNNY   82  75  78 NE15      29.98R
SEBASTIAN      PTSUNNY   81  74  80 NE13      29.96R
ORLANDO EXEC   PTSUNNY   82  72  71 NE12      29.94F
LEESBURG       PTSUNNY   78  71  79 NE14      29.94F
SANFORD        CLOUDY    77  70  79 E14       29.95S
DELAND         PTSUNNY   74  69  83 E8        29.96F
NEW SMYRNA BCH SUNNY     75  73  94 NE10      29.97F
ORMOND BEACH   SUNNY     75  73  94 NE7       29.93F
WINTER HAVEN   MOSUNNY   89  72  56 SW8       29.93F
KISSIMMEE      MOSUNNY   87  73  62 N5        29.94F
OKEECHOBEE     MOSUNNY   93  68  43 W14       29.90S
TAMPA          MOSUNNY   87  75  67 W5        29.92F
$$
...NORTHERN FLORIDA...

CITY           SKY/WX    TMP DP  RH WIND       PRES   REMARKS
PALM COAST     SUNNY     73  70  88 CALM      29.92F
ST AUGUSTINE   PTSUNNY   77  69  76 SE6       29.92F
OCALA          MOSUNNY   76  68  76 E7        29.93F
GAINESVILLE    PTSUNNY   75  69  81 E5        29.94S
JACKSONVILLE   CLOUDY    76  65  68 S3        29.86F
TALLAHASSEE    CLOUDY    75  70  84 W5        29.85S
$$
...ALONG THE SOUTHEAST COAST TO THE KEYS...

CITY           SKY/WX    TMP DP  RH WIND       PRES   REMARKS
STUART         MOSUNNY   84  73  70 NE9G16    29.95R
WEST PALM BCH  TSTM      83  81  94 E10       29.94R FOG
MIAMI          PTSUNNY   88  80  77 SE12G24   29.92S HX 104
KEY WEST       SUNNY     91  77  63 N5        29.93S HX 104
$$
...MARINE REPORTS...

STATION/POSITION TIME  TEMP    WIND        PRES    WAVE   SWELL
                       AIR SEA DIR/SP/G            HT/PER HT/PER
                 (UTC) (F)     (DEG/KT/KT) (MB)    (FT/S) (FT/S)
ST AUGUSTINE FP  2200   77 78  100/  3/  4 1014.6F
10NM E OF ST AUG 2226      78                N/A     3/ 4
13NM NE OF PONCE 2235      78                N/A     3/ 3
20NM E CAPE CANA 2250   73 80  350/  4/ 10 1015.2R   1/10   2/10
120 E NEW SMYRNA 2250   80 80  190/  2/  2 1013.9F   2/ 9   2/ 9
TRIDENT PIER     2230   75 85   90/  8/ 10 1014.7F
4NM E PORT CANAV 2256      79                N/A     1/11
6NM NE FPR INLET 2256      79                N/A     1/11
SETTLEMENT PT GB 2300   84     160/  7/  8 1014.3R
$$